Other Public Products
Issued by NWS Grand Forks, ND

Home | Current Version | Previous Version | Text Only | Print | Product List | Glossary On
Versions: 1 2 3 4 5 6 7 8 9 10 11 12 13 14 15 16 17 18 19 20 21 22 23 24 25 26 27 28 29 30 31 32 33 34 35 36 37 38 39 40 41 42 43 44 45 46 47 48 49 50
000
FPUS83 KFGF 272310
OPUFGF
PRAIRIE TO PINES WEATHER ROUNDUP
NATIONAL WEATHER SERVICE EASTERN NORTH DAKOTA/GRAND FORKS ND
600 PM CDT FRI MAR 27 2015

 **SATELLITE DATA USED TO AUGMENT SKY COVER AT AUTOMATED STATIONS**
 *****  WEATHER ACROSS EASTERN NORTH DAKOTA  *****

CITY           SKY/WX    TMP DP  RH WIND       PRES   REMARKS
GRAND FORKS    CLOUDY    34  20  56 S13       30.08R WCI  25
GRAND FORKS AF LGT SNOW  32  28  86 S9        30.07R FOG     WCI  24
GRAND CITY NWS   N/A     32 N/A N/A SE15        N/A  WCI  22
BUXTON         NOT AVBL
DEVILS LAKE    CLOUDY    28  25  86 S18       29.96S WCI  16
FARGO          CLOUDY    35  15  44 SE8       30.09R
WAHPETON ARPT  CLOUDY    34  12  40 S17       30.09R WCI  23
$$

 *****  WEATHER ACROSS CENTRAL AND WESTERN NORTH DAKOTA  *****

CITY           SKY/WX    TMP DP  RH WIND       PRES   REMARKS
JAMESTOWN      LGT SNOW  28  26  92 S12       29.98S FOG     WCI  18
BISMARCK       PTSUNNY   50  34  54 SE9       29.88S
MINOT          MOSUNNY   50  37  61 N14       29.88R
MINOT AFB      MOSUNNY   47  42  83 N9        29.88R
GARRISON         N/A     54  37  52 N18G28    29.87R
WILLISTON      MOSUNNY   62  36  37 N15G24    29.89R
DICKINSON      SUNNY     63  34  33 NW17G30   29.87R
HETTINGER      PTSUNNY   66  33  29 NW18G29   29.89S
$$

 *****  OTHER OBSERVATIONS NORTHEAST NORTH DAKOTA  *****

CITY           SKY/WX    TMP DP  RH WIND       PRES   REMARKS
WALHALLA         N/A     30  30 100 SE14G22   30.04F FOG     WCI  20
LANGDON        NOT AVBL
CAVALIER       MIX PCPN  28  27  93 SE10G18   30.05F WCI  19
GRAFTON        NOT AVBL
CANDO          NOT AVBL
FORT TOTTEN    NOT AVBL
ROLLA          CLOUDY    27  27 100 S13       29.96R WCI  16
RUGBY          CLOUDY    32  30  93 SE10      29.92R WCI  24
 ***** THE ABOVE OBSERVATIONS ARE NON NWS ARE NOT QUALITY
        CONTROLLED AND MAY MIS-REPORT RAIN FOR SNOW...
$$

 *****  OTHER OBSERVATIONS SOUTHEAST NORTH DAKOTA *****

CITY           SKY/WX    TMP DP  RH WIND       PRES   REMARKS
COOPERSTOWN    NOT AVBL
VALLEY CITY    LGT SNOW  28  28 100 S12G20    30.02F WCI  18
OAKES          LGT SNOW  28  28 100 SE13      30.02F WCI  18
GWINNER        CLOUDY    32  32 100 SE8         N/A  WCI  25
BUFFALO        NOT AVBL
WYNDMERE         N/A     30  28  93 S6          N/A  WCI  24
 ***** THE ABOVE OBSERVATIONS ARE NON NWS ARE NOT QUALITY
       CONTROLLED AND MAY MIS-REPORT RAIN FOR SNOW...
$$

  *****  WEATHER ACROSS NORTHERN MINNESOTA  *****

CITY           SKY/WX    TMP DP  RH WIND       PRES   REMARKS
FLAG ISLAND    CLOUDY    27  10  50 SE6       30.09F WCI  20
WARROAD        PTSUNNY   28  18  64 E3        30.10S
ROSEAU         PTSUNNY   34  16  47 S5        30.09F
HALLOCK        FLURRIES  30  23  74 S13       30.08F WCI  20
THF RVR FALLS  CLOUDY    30  16  55 S8        30.10S WCI  23
HALSTAD        NOT AVBL
FOSSTON        CLOUDY    32   7  34 CALM      30.09S
BAUDETTE       PTSUNNY   33   7  33 E6        30.08F
WASKISH        PTSUNNY   32   9  37 CALM      30.10S
CROOKSTON      CLOUDY    34  18  51 S15       30.11S WCI  24
$$
  *****  WEATHER ACROSS CENTRAL AND WEST MINNESOTA  *****

CITY           SKY/WX    TMP DP  RH WIND       PRES   REMARKS
BEMIDJI        CLOUDY    34   4  28 W5        30.07S
PARK RAPIDS    CLOUDY    35   2  24 S3        30.07S
WADENA         CLOUDY    34   7  32 S6        30.08S
DETROIT LAKES  CLOUDY    32   9  37 SW5       30.09S
MOORHEAD       CLOUDY    36   7  30 SE5       30.10R
FERGUS FALLS   PTSUNNY   34   3  27 S9        30.12R
ELBOW LAKE     FAIR      32  12  43 S12       30.08S WCI  23
MORRIS MN      CLOUDY    34  18  51 SE10      30.08F
STAPLES        CLOUDY    34   3  27 S6        30.09S
WHEATON        CLOUDY    34  10  37 SE8       30.10S
$$
  *****  WEATHER ELSEWHERE ACROSS MINNESOTA  *****

CITY           SKY/WX    TMP DP  RH WIND       PRES   REMARKS
DULUTH         SUNNY     29   3  33 SE9       30.12S WCI  20
INTRNTL FALLS  SUNNY     34   3  27 E5        30.09S
ELY            SUNNY     34  -4  19 W6        30.09S
CLOQUET        SUNNY     34   0  23 SE7       30.11S
BRAINERD       CLOUDY    34  -1  22 SW6       30.10F
HIBBING        MOSUNNY   34  -3  20 CALM      30.09F
ALEXANDRIA     CLOUDY    31  12  45 S9        30.09F WCI  23
SAINT CLOUD    PTSUNNY   34   4  28 S8        30.13S
MINNEAPOLIS    PTSUNNY   33   6  32 SW8       30.15S
$$

  *****  WEATHER ACROSS SOUTH DAKOTA  *****

CITY           SKY/WX    TMP DP  RH WIND       PRES   REMARKS
SIOUX FALLS    FLURRIES  34  20  56 SW9       30.08F
BROOKINGS      NOT AVBL
WATERTOWN      LGT SNOW  31  25  78 S9        30.03F WCI  23
HURON          CLOUDY    32  28  85 SE14G22   30.02F WCI  22
SISSETON         N/A     31  27  85 SW6       30.07S
ABERDEEN       CLOUDY    31  27  85 S17       30.01F WCI  19
MITCHELL       CLOUDY    35  27  72 S14       30.05F
PIERRE         MOSUNNY   50  34  54 SE14      29.88F
MOBRIDGE       MOSUNNY   48  34  58 SE17      29.87F
RAPID CITY     PTSUNNY   67  36  31 N24G30    29.92S
$$

  *****  SOME WEATHER IN NEARBY STATES *****

CITY           SKY/WX    TMP DP  RH WIND       PRES   REMARKS
GLASGOW MT     MOSUNNY   69  35  28 W12       29.87F
GREAT FALLS MT MOSUNNY   73  27  18 W21       29.94F
CHEYENNE WY    MOSUNNY   64  25  22 NW23G33   30.09S
SCOTTSBLUFF NE SUNNY     72  32  23 NW21G29   29.97S
OMAHA NE       CLOUDY    39  15  37 W13       30.15F
DES MOINES IA  CLOUDY    40   7  25 CALM      30.15S
DAVENPORT IA   SUNNY     36   8  31 N9        30.16S
CHICAGO IL     MOSUNNY   28  13  53 NE15      30.16R WCI  16
EAU CLAIRE WI  SUNNY     35   5  28 VRB3      30.14S
LA CROSSE WI   SUNNY     36   8  31 CALM      30.16F
$$

  *****  SOME NATIONAL WEATHER *****

CITY           SKY/WX    TMP DP  RH WIND       PRES   REMARKS
LA GUARDIA NY  CLOUDY    45  29  53 NW10      29.74R
RALEIGH NC     LGT RAIN  43  39  86 N6        29.80R
ATLANTA GA     PTSUNNY   55  24  30 NW22G28   29.85R
NEW ORLEANS LA MOSUNNY   68  38  33 NW14      30.01S
OKLAHOMA CITY  PTSUNNY   56  34  43 VRB3      30.14F
ALBUQUERQUE NM MOSUNNY   76  16  10 W14G23    30.14F
SALT LAKE CITY SUNNY     70  32  24 CALM      30.17F
LOS ANGELES CA SUNNY     71  57  61 W15       30.02F
BOISE ID       SUNNY     75  41  29 S6        30.04F
SEATTLE WA     PTSUNNY   64  49  57 SW9       29.97F
$$

*** WEATHER ACROSS MANITOBA...SASKATCHEWAN AND ONTARIO ***
                ***ONTARIO***

CITY           SKY/WX    TMP DP  RH WIND       PRES   REMARKS
GERALDTON      SUNNY     25  -4  28 W6        30.12S WCI  18
THUNDER BAY    SUNNY     27   7  43 S10       30.18S WCI  17
SIOUX LOOKOUT  MOSUNNY   28   0  29 VRB2      30.09F
TORONTO        MOCLDY    19   7  58 NW21G26   29.98R WCI   3
BIG TROUT LK   SUNNY     28   1  31 NW7       30.03S WCI  21
PICKLE LAKE    SUNNY     28  -4  24 W7        30.06F WCI  21
DRYDEN         SUNNY     28   3  34 NW6       30.09S WCI  22
KENORA         PTSUNNY   28   3  34 SW7       30.09F WCI  21
$$
                *** MANITOBA***

CITY           SKY/WX    TMP DP  RH WIND       PRES   REMARKS
BRANDON        CLOUDY    30  28  93 SE10      29.98R WCI  21
DAUPHIN        CLOUDY    30  28  93 E6        30.00S WCI  24
ISLAND LAKE    SUNNY     32  10  40 CALM      30.05S
PILOT MOUND      N/A     28  27  93 S16         N/A  WCI  17
THE PAS        MOSUNNY   37  23  56 S10       30.01S
THOMPSON       SUNNY     39  19  45 SW9       29.97F
WINNIPEG       FLURRIES  30  25  80 S14       30.09R WCI  20
LYNN LAKE      SUNNY     41  19  42 S12       29.88F
GILLAM         SUNNY     36  19  51 W8        29.96F
$$
                ***SASKATCHEWAN***

CITY           SKY/WX    TMP DP  RH WIND       PRES   REMARKS
ESTEVAN        PTSUNNY   52  39  62 NW15G22   29.90R
KINDERSLEY     PTSUNNY   61  43  51 SE5       29.84F
LLOYDMINSTER   PTSUNNY   48  37  66 S8        29.82F
PRINCE ALBERT  CLOUDY    36  30  80 SE9       29.94F
REGINA         PTSUNNY   50  41  71 N13       29.90S
YORKTON        CLOUDY    34  30  86 NE9       29.95R
N. BATTLEFORD  SUNNY     48  39  71 E8        29.88F


USA.gov is the U.S. government's official web portal to all federal, state and local government web resources and services.